FW8044 Weather Reports


Display with metric or nautical units.
time (UTC)temp
F
wind
direction
speed
MPH
gust
MPH
rain 1hr
in
rain 24hr
in
rain mn
in
humidity
%
barometer
mb
20260505073707 47 244 0.0 1.0 0.05 0.06 0.06 79 1008.2
20260505073204 47 288 1.0 3.0 0.00 0.05 0.05 76 1008.3
20260505072700 47 350 4.0 6.0 0.00 0.05 0.05 79 1008.4
20260505072156 47 295 1.0 2.0 0.07 0.05 0.05 81 1009.0
20260505071652 47 258 0.0 1.0 0.07 0.05 0.05 79 1009.1
20260505071150 47 272 1.0 2.0 0.05 0.04 0.04 78 1008.6
20260505070647 47 265 1.0 2.0 0.05 0.04 0.04 78 1008.1
20260505070143 47 353 1.0 3.0 0.07 0.03 0.03 75 1008.5
20260505065639 48 287 2.0 7.0 0.05 0.02 0.02 72 1009.2
20260505065136 48 293 1.0 3.0 0.05 0.02 0.02 72 1009.0
20260505064633 49 319 2.0 3.0 0.00 0.01 0.01 67 1008.8
20260505064131 49 344 4.0 8.0 0.07 0.01 0.01 65 1009.0
20260505063628 50 294 3.0 9.0 0.07 0.01 0.01 65 1009.6
20260505063124 50 327 4.0 8.0 0.00 0.00 0.00 62 1009.6
20260505062621 51 344 2.0 7.0 0.00 0.00 0.00 59 1009.8
20260505062118 51 350 4.0 6.0 0.00 0.00 0.00 56 1009.8
20260505061615 51 324 1.0 3.0 0.00 0.00 0.00 56 1009.5
20260505061113 52 334 2.0 5.0 0.00 0.00 0.00 54 1009.4
20260505060611 52 326 3.0 6.0 0.00 0.00 0.00 51 1009.2
20260505060107 52 359 3.0 7.0 0.00 0.00 0.00 50 1009.1
20260505055602 52 118 2.0 3.0 0.00 0.00 0.00 51 1009.2
20260505055059 53 279 1.0 5.0 0.00 0.00 0.00 51 1009.1
20260505054556 53 26 8.0 11.0 0.00 0.00 0.00 46 1009.2
20260505054055 53 254 0.0 2.0 0.00 0.00 0.00 46 1009.2
20260505053551 53 132 3.0 8.0 0.00 0.00 0.00 46 1008.6
20260505053048 53 356 2.0 6.0 0.00 0.00 0.00 45 1008.4
20260505052545 53 336 5.0 13.0 0.00 0.00 0.00 44 1008.3
20260505052043 54 6 5.0 8.0 0.00 0.00 0.00 44 1008.0
20260505051539 54 357 8.0 9.0 0.00 0.00 0.00 44 1008.0
20260505051037 54 6 6.0 8.0 0.00 0.00 0.00 43 1008.2
20260505050535 54 327 5.0 8.0 0.00 0.00 0.00 44 1008.1
20260505041503 56 0 3.0 9.0 0.00 0.00 0.00 41 1007.8
20260505041000 56 327 7.0 13.0 0.00 0.00 0.00 40 1007.8
20260505040458 56 329 3.0 9.0 0.00 0.00 0.00 39 1007.7
20260505035954 56 27 4.0 14.0 0.00 0.00 0.00 39 1007.8
20260505035450 56 345 6.0 14.0 0.00 0.00 0.00 38 1007.9
20260505034948 56 313 1.0 6.0 0.00 0.00 0.00 38 1007.9
20260505034444 56 324 2.0 5.0 0.00 0.00 0.00 39 1007.7
20260505033941 56 342 3.0 14.0 0.00 0.00 0.00 38 1007.7
20260505033438 56 327 4.0 7.0 0.00 0.00 0.00 38 1007.8
20260505032936 56 335 5.0 7.0 0.00 0.00 0.00 38 1008.0
20260505032433 57 200 3.0 7.0 0.00 0.00 0.00 38 1007.8
20260505031929 57 20 5.0 7.0 0.00 0.00 0.00 36 1007.8
20260505031427 57 276 3.0 14.0 0.00 0.00 0.00 37 1007.5
20260505030923 57 280 2.0 9.0 0.00 0.00 0.00 37 1007.2
20260505030419 57 8 5.0 11.0 0.00 0.00 0.00 37 1007.3
20260505025915 57 0 6.0 11.0 0.00 0.00 0.00 38 1007.5
20260505025412 58 295 3.0 17.0 0.00 0.00 0.00 37 1007.5
20260505024911 58 19 4.0 10.0 0.00 0.00 0.00 38 1007.3
20260505024408 58 337 11.0 17.0 0.00 0.00 0.00 37 1007.4
20260505023905 58 1 4.0 14.0 0.00 0.00 0.00 37 1007.2
20260505023402 59 336 3.0 6.0 0.00 0.00 0.00 37 1007.0
20260505022859 59 346 6.0 8.0 0.00 0.00 0.00 36 1007.1
20260505022356 59 332 7.0 15.0 0.00 0.00 0.00 35 1006.7
20260505021854 59 348 3.0 7.0 0.00 0.00 0.00 35 1006.3
20260505021350 59 336 3.0 10.0 0.00 0.00 0.00 35 1006.5
20260505020846 60 274 4.0 15.0 0.00 0.00 0.00 34 1006.4
20260505020341 60 277 3.0 11.0 0.00 0.00 0.00 34 1006.3
20260505015838 61 312 3.0 11.0 0.00 0.00 0.00 35 1006.1
20260505015336 61 282 3.0 13.0 0.00 0.00 0.00 35 1006.0
20260505014833 62 356 3.0 7.0 0.00 0.00 0.00 35 1005.8
20260505014330 62 51 7.0 9.0 0.00 0.00 0.00 34 1005.6
20260505013826 63 311 3.0 5.0 0.00 0.00 0.00 33 1005.5
20260505013324 64 355 6.0 9.0 0.00 0.00 0.00 31 1005.1
20260505012822 64 332 4.0 8.0 0.00 0.00 0.00 31 1005.1
20260505012319 64 5 5.0 13.0 0.00 0.00 0.00 31 1004.8
20260505011815 65 23 5.0 15.0 0.00 0.00 0.00 30 1004.9
20260505011312 66 358 6.0 10.0 0.00 0.00 0.00 29 1004.5
20260505010808 66 333 3.0 6.0 0.00 0.00 0.00 29 1004.5
20260505010304 66 353 5.0 16.0 0.00 0.00 0.00 29 1004.3
20260505005800 67 323 9.0 16.0 0.00 0.00 0.00 28 1004.4
20260505005258 67 228 5.0 11.0 0.00 0.00 0.00 28 1004.0
20260505004755 67 259 3.0 10.0 0.00 0.00 0.00 29 1003.9
20260505004251 68 9 3.0 8.0 0.00 0.00 0.00 29 1004.0
20260505003748 68 253 6.0 11.0 0.00 0.00 0.00 28 1003.7
20260505003246 69 325 11.0 14.0 0.00 0.00 0.00 27 1003.8
20260505002742 70 292 7.0 10.0 0.00 0.00 0.00 28 1003.5
20260505002240 70 229 5.0 10.0 0.00 0.00 0.00 28 1003.2
20260505001737 71 92 5.0 8.0 0.00 0.00 0.00 27 1003.2
20260505001234 72 310 5.0 7.0 0.00 0.00 0.00 28 1003.0
20260505000731 72 334 3.0 5.0 0.00 0.00 0.00 26 1003.0
20260505000229 73 340 5.0 7.0 0.00 0.00 0.00 26 1002.7
20260504235725 73 12 5.0 14.0 0.00 0.00 0.00 26 1002.9
20260504235221 74 266 5.0 15.0 0.00 0.00 0.00 26 1002.8
20260504234719 74 257 3.0 6.0 0.00 0.00 0.00 26 1002.9
20260504234216 75 80 4.0 8.0 0.00 0.00 0.00 25 1002.8
20260504233712 75 338 6.0 9.0 0.00 0.00 0.00 24 1002.7
20260504233208 75 244 5.0 13.0 0.00 0.00 0.00 25 1002.7
20260504232706 76 324 5.0 14.0 0.00 0.00 0.00 24 1002.4
20260504232202 76 341 4.0 6.0 0.00 0.00 0.00 26 1002.4
20260504231659 76 32 3.0 8.0 0.00 0.00 0.00 26 1002.2
20260504231155 77 313 4.0 10.0 0.00 0.00 0.00 25 1002.5
20260504230652 77 316 5.0 8.0 0.00 0.00 0.00 24 1002.3
20260504230151 78 11 11.0 20.0 0.00 0.00 0.00 25 1002.1
20260504225649 78 344 5.0 6.0 0.00 0.00 0.00 25 1002.3
20260504225144 77 6 2.0 6.0 0.00 0.00 0.00 27 1002.1
20260504224641 77 314 7.0 13.0 0.00 0.00 0.00 24 1001.8
20260504224138 77 15 5.0 17.0 0.00 0.00 0.00 26 1002.0
20260504223636 77 311 8.0 14.0 0.00 0.00 0.00 24 1002.1
20260504223131 78 16 5.0 16.0 0.00 0.00 0.00 25 1001.4
20260504222628 79 19 9.0 15.0 0.00 0.00 0.00 25 1001.4
20260504222125 80 28 5.0 9.0 0.00 0.00 0.00 27 1001.5
20260504221622 81 18 3.0 7.0 0.00 0.00 0.00 26 1001.4
20260504221119 81 347 2.0 10.0 0.00 0.00 0.00 26 1001.0
20260504220615 81 252 2.0 7.0 0.00 0.00 0.00 28 1001.0
20260504220114 81 302 5.0 14.0 0.00 0.00 0.00 27 1001.1
20260504215609 83 42 9.0 13.0 0.00 0.00 0.00 26 1001.0
20260504215107 83 261 1.0 5.0 0.00 0.00 0.00 27 1000.8
20260504214603 83 285 3.0 9.0 0.00 0.00 0.00 27 1000.7
20260504214059 84 242 1.0 5.0 0.00 0.00 0.00 27 1000.7
20260504213555 84 258 1.0 5.0 0.00 0.00 0.00 26 1000.7
20260504213052 83 263 2.0 5.0 0.00 0.00 0.00 28 1000.4
20260504212548 81 257 2.0 6.0 0.00 0.00 0.00 28 1000.7
20260504212046 81 23 2.0 6.0 0.00 0.00 0.00 28 1000.8
20260504211543 82 250 1.0 3.0 0.00 0.00 0.00 27 1000.6
20260504211040 83 307 4.0 5.0 0.00 0.00 0.00 26 1000.6
20260504210537 84 249 2.0 6.0 0.00 0.00 0.00 25 1000.6
20260504210033 86 356 5.0 10.0 0.00 0.00 0.00 22 1000.7
20260504205531 86 2 3.0 6.0 0.00 0.00 0.00 21 1000.5
20260504205029 86 247 5.0 7.0 0.00 0.00 0.00 20 1000.6
20260504204527 86 346 4.0 8.0 0.00 0.00 0.00 20 1000.6
20260504204026 85 290 8.0 10.0 0.00 0.00 0.00 21 1000.7
20260504203523 85 305 5.0 9.0 0.00 0.00 0.00 20 1000.8
20260504203021 85 321 4.0 8.0 0.00 0.00 0.00 20 1000.6
20260504202516 85 326 5.0 9.0 0.00 0.00 0.00 21 1000.7
20260504202013 84 220 4.0 7.0 0.00 0.00 0.00 21 1000.9
20260504201510 84 269 5.0 10.0 0.00 0.00 0.00 20 1001.0
20260504201008 84 300 3.0 10.0 0.00 0.00 0.00 22 1000.9
20260504200504 85 246 5.0 8.0 0.00 0.00 0.00 21 1000.9
20260504200001 85 255 3.0 9.0 0.00 0.00 0.00 22 1000.9
20260504195457 84 289 2.0 9.0 0.00 0.00 0.00 23 1000.9
20260504194954 84 309 4.0 10.0 0.00 0.00 0.00 23 1001.0
20260504194450 83 280 3.0 7.0 0.00 0.00 0.00 23 1001.0
20260504193945 84 278 2.0 8.0 0.00 0.00 0.00 23 1000.9
20260504193443 84 257 2.0 7.0 0.00 0.00 0.00 25 1001.2
20260504192942 83 155 5.0 9.0 0.00 0.00 0.00 25 1001.2
20260504192438 84 273 2.0 13.0 0.00 0.00 0.00 25 1001.1
20260504191937 84 244 2.0 10.0 0.00 0.00 0.00 25 1001.0
20260504191435 84 284 3.0 7.0 0.00 0.00 0.00 26 1000.9
20260504190930 85 275 3.0 8.0 0.00 0.00 0.00 26 1000.9
20260504190426 85 259 2.0 5.0 0.00 0.00 0.00 25 1001.1
20260504185923 84 239 2.0 3.0 0.00 0.00 0.00 27 1001.0
20260504185420 84 320 3.0 8.0 0.00 0.00 0.00 26 1000.9
20260504184915 82 241 2.0 6.0 0.00 0.00 0.00 26 1001.1
20260504184412 82 242 6.0 7.0 0.00 0.00 0.00 28 1001.1
20260504183908 84 261 3.0 11.0 0.00 0.00 0.00 25 1001.0
20260504183405 83 297 1.0 3.0 0.00 0.00 0.00 27 1001.0
20260504182903 83 253 3.0 7.0 0.00 0.00 0.00 28 1001.2
20260504182400 84 255 3.0 8.0 0.00 0.00 0.00 27 1000.8
20260504181856 83 271 2.0 9.0 0.00 0.00 0.00 26 1001.0
20260504181354 83 257 3.0 7.0 0.00 0.00 0.00 26 1001.1
20260504180853 84 249 3.0 8.0 0.00 0.00 0.00 27 1001.0
20260504180351 84 279 3.0 5.0 0.00 0.00 0.00 27 1001.0
20260504175849 83 304 2.0 5.0 0.00 0.00 0.00 30 1001.0
20260504175345 83 226 11.0 15.0 0.00 0.00 0.00 26 1001.1
20260504174843 82 279 7.0 10.0 0.00 0.00 0.00 27 1001.1
20260504174341 82 191 5.0 13.0 0.00 0.00 0.00 28 1001.1
20260504173837 82 247 5.0 8.0 0.00 0.00 0.00 29 1001.0
20260504173334 82 236 3.0 6.0 0.00 0.00 0.00 31 1001.0
20260504172831 82 254 5.0 8.0 0.00 0.00 0.00 31 1001.2
20260504172328 82 206 4.0 10.0 0.00 0.00 0.00 33 1001.4
20260504171824 81 212 2.0 6.0 0.00 0.00 0.00 32 1001.4
20260504171321 81 210 2.0 9.0 0.00 0.00 0.00 32 1001.3
20260504170818 80 266 2.0 11.0 0.00 0.00 0.00 35 1001.2
20260504170315 81 267 4.0 8.0 0.00 0.00 0.00 32 1001.2
20260504160233 77 242 2.0 2.0 0.00 0.00 0.00 42 1001.7
20260504150659 71 243 1.0 5.0 0.00 0.00 0.00 48 1002.2
20260504150155 71 285 1.0 2.0 0.00 0.00 0.00 48 1002.0
20260504141124 64 250 3.0 6.0 0.00 0.00 0.00 54 1002.6
20260504140621 63 214 2.0 7.0 0.00 0.00 0.00 55 1002.4
20260504140117 63 235 3.0 9.0 0.00 0.00 0.00 55 1002.6
20260504130545 57 244 0.0 1.0 0.00 0.00 0.00 61 1003.0
20260504110433 50 223 1.0 1.0 0.00 0.00 0.00 66 1003.5
20260504100349 52 225 1.0 2.0 0.00 0.00 0.00 62 1004.0
20260504081743 54 236 1.0 2.0 0.00 0.00 0.00 56 1005.2
20260504081239 54 225 2.0 3.0 0.00 0.00 0.00 56 1005.2
20260504080735 54 216 2.0 2.0 0.00 0.00 0.00 56 1005.1
20260504080232 54 229 2.0 3.0 0.00 0.00 0.00 55 1005.1